Tracking 30685 objects as of 18-Jun-2025
HD Live streaming from Space Station
objects crossing your sky now

MSU ALTAIR

Track MSU ALTAIR now!
10-day predictions


NORAD ID: 61779
Int'l Code: 2024-199AW
Perigee: 474.8 km
Apogee: 496.8 km
Inclination: 97.4 °
Period: 94.2 minutes
Semi major axis: 6856 km
RCS: Unknown
Launch date: November 4, 2024
Source: Commonwealth of Independent States (former USSR) (CIS)
Launch site: VOSTOCHNY COSMODROME (VOSTO)
Your satellite tracking list
Your tracking list is empty




NASA's NSSDC Master Catalog

Two Line Element Set (TLE):
1 61779U 24199AW  25168.85093297  .00006218  00000-0  22225-3 0  9993
2 61779  97.3548  36.6095 0016041 161.8436 198.3381 15.29058320 81308
Source of the keplerian elements: AFSPC